Regional Weather Roundup
Issued by NWS Charleston, SC

Current Version | Previous Version | Graphics & Text | Print | Product List | Glossary On
Versions: 1 2 3 4 5 6 7 8 9 10 11 12 13 14 15 16 17 18 19 20 21 22 23 24 25 26 27 28 29 30 31 32 33 34 35 36 37 38 39 40 41 42 43 44 45 46 47 48 49 50
000 ASUS42 KCHS 222327 RWRCHS REGIONAL WEATHER ROUNDUP NATIONAL WEATHER SERVICE CHARLESTON SC 700 PM EDT WED MAR 22 2017 NOTE: "FAIR" INDICATES FEW OR NO CLOUDS BELOW 12,000 FEET WITH NO SIGNIFICANT WEATHER AND/OR OBSTRUCTIONS TO VISIBILITY. NOT ALL STATIONS ARE QUALITY CONTROLLED. USE DATA WITH CAUTION... ESPECIALLY DEWPOINT OBSERVATIONS. SCZ027-030-031-034>040-042>050-230000- ...SOUTHEAST SOUTH CAROLINA... CITY SKY/WX TMP DP RH WIND PRES REMARKS N CHARLESTON PTCLDY 64 49 57 E14 30.16R WATERFRONT PRK N/A 64 55 72 E14 30.13R JOHNS ISLAND FAIR 61 54 77 E8G15 30.17R PINOPOLIS N/A 63 48 59 N12 30.06R MONCKS CORNER FAIR 63 32 31 N7 30.18R SUMMERVILLE FAIR 64 36 34 N9G16 30.18R BEAUFORT MCAS CLOUDY 64 55 72 E13 30.15R BEAUFORT ARPT FAIR 63 52 67 E13 30.16R HILTON HEAD IS PTCLDY 63 55 77 NE8 30.16R WALTERBORO MOCLDY 66 43 42 NE5 30.17R ALLENDALE FAIR 70 43 37 NE6 30.14R ...SOUTHERN MIDLANDS AND PEE DEE... CITY SKY/WX TMP DP RH WIND PRES REMARKS GEORGETOWN FAIR 59 50 72 E9 30.21R KINGSTREE FAIR 61 23 23 N5 30.20R ORANGEBURG CLOUDY 65 27 23 NE15 30.18R BARNWELL FAIR 70 43 37 NE17 30.16R AIKEN FAIR 63 37 39 NE7 30.21R MANNING FAIR 61 28 29 NE6 30.20R COLUMBIA CLOUDY 65 25 22 N12 30.19R SUMTER CLOUDY 61 35 37 NE12 30.18R FLORENCE CLOUDY 61 23 23 N9 30.21R MYRTLE BEACH PTCLDY 59 50 72 E15 30.20R N MYRTLE BEACH CLOUDY 58 49 72 E14G22 30.18R $$ GAZ063-065-086>088-099>101-113>116-118-119-134>141-150-230000- ...SOUTHEAST GEORGIA... CITY SKY/WX TMP DP RH WIND PRES REMARKS SAVANNAH ARPT MOCLDY 66 50 56 E15 30.14R HUNTER AAF CLEAR 65 55 68 E13G18 30.12R FORT STEWART MOCLDY 70 54 57 E12 30.10R STATESBORO CLOUDY 73 51 45 NE6 30.13R SYLVANIA CLOUDY N/A N/A N/A NE8 30.14R CLAXTON FAIR 74 54 49 N9 30.11R ...CSRA...CENTRAL AND FAR SOUTHEAST GEORGIA... CITY SKY/WX TMP DP RH WIND PRES REMARKS THOMSON MOCLDY 67 45 44 MISG 30.21R AUGUSTA-BUSH PTCLDY 70 45 40 NE9 30.14R AUGUSTA-DANIEL PTCLDY 69 40 34 NE13 30.16R SWAINSBORO CLOUDY 70 50 49 NE7 30.14R VIDALIA CLOUDY 75 54 46 NE10 30.11R EASTMAN FAIR 75 42 30 NE9G17 30.13R HAZLEHURST FAIR 78 57 49 NE6 30.08R ALMA PTCLDY 79 56 45 VRB5 30.07R WAYCROSS CLOUDY 75 64 67 SE13G20 30.09R JESUP CLOUDY 72 55 56 E8 30.11R BAXLEY FAIR 77 61 57 E7 30.08R BRUNSWICK CLEAR 66 59 77 NE15 30.13R SAINT SIMONS CLEAR 66 57 72 E13 30.10R $$ SCZ027-028-034-036>038-045-046-048>050-GAZ119-141-230000- ...LAKE AND SUPPLEMENTAL COASTAL OBSERVATIONS... STATION/POSITION TIME TEMP WIND PRES WAVE SWELL AIR SEA DIR/SP/G HT/PER HT/PER/DIR (UTC) (F) (DEG/KT/KT) (MB) (FT/S) (FT/S/D) WINYAH BAY 2245 60 70/ 8 1022.0R LAKE MURRAY 2250 62 30/ 4/ 7 1022.0R ACE BASIN NERRS 2230 65 80/ 4 1020.0R FORT PULASKI 2300 62 61 80/ 14/ 18 1020.8 SAPELO ISLAND 2300 65 80/ 10 1020.0 $$ ANZ835-935-AMZ111-154-330-350-352-354-370-450-454-472-230000- ...C-MAN AND BUOY OBSERVATIONS... STATION/POSITION TIME TEMP WIND PRES WAVE SWELL AIR SEA DIR/SP/G HT/PER HT/PER/DIR (UTC) (F) (DEG/KT/KT) (MB) (FT/S) (FT/S/D) BUOY 41004 2250 64 66 70/ 19/ 21 1020.0R 6/ 6 2/ 80/11 BUOY 41008 2250 64 62 80/ 17/ 19 1019.1R 3/ 4 2/120/11 FOLLY BEACH CMAN 2300 61 80/ 12/ 14 1021.9R CAPERS NEARSHORE 2208 60 90/ 16/ 19 1020.1R FRIPP NEARSHORE 2308 62 60 90/ 12/ 16 1020.7R STATION/POSITION TIME TEMP WIND PRES WAVE SWELL AIR SEA DIR/SP/G HT/PER HT/PER/DIR (UTC) (F) (DEG/KT/KT) (MB) (FT/S) (FT/S/D) 5E ST. MARYS GA 2300 64 N/A 3/ 4 2/100/11 FRYING PAN BUOY 2310 59 65 40/ 19/ 25 1022.4 BUOY 41025 2250 48 74 10/ 25/ 35 1024.5R 10/10 CAPE LOOKOUT NC 2300 50 40/ 25/ 27 1024.4R BUOY 41002 2250 67 75 20/ 25/ 31 1018.1R 8/ 7 7/280/ 7 BUOY 41010 NOT AVBL ST AUGUSTINE FL 2300 66 67 30/ 16/ 19 1019.3R $$

USA.gov is the U.S. government's official web portal to all federal, state and local government web resources and services.